STARLINK-1643 (46136 NORAD) Tracking and Keplerian Element Data

This shows tracking and keplerian element data for the satellite.

Feedback or suggestion? Click here.




ElementValue
Catalog46136
NameSTARLINK-1643
Epoch Orbit179
Epoch Day335.91670139
Epoch Year2020
RAAN307.2488
Inclination53.0004
Eccentricity0.0001911
Argument of Perigee60.3914
Mean Anonmoly201.408
Mean Motion15.05578406
Decay Rate0.00023032
L11 46136U 20057V 20335.91670139 .00023032 00000-0 15948-2 0 9992
L22 46136 53.0004 307.2488 0001911 60.3914 201.4080 15.05578406 1794

Live tracking and technical data element details for STARLINK-1643 (NORAD 46136). STARLINK-1643 can be tracked NOW for your location showing map with azimuth and elevation plus other details from your city location.

Track the satellite on the map from your city or location and see movement details for azimuth, elevation, latitude, longitude, range, height, and movement on the map or in text.







IsCatalogInMostPopularTable: catalog: 46136, numindb: 19
Update: records affected: 1



GetName: 46136 STARLINK-1643

Hit Count: updated at: Wed, 02 Dec 2020 06:55:03 GMT